owner,sensor,date,latitude,longitude,vertical_datum,sea_water_temperature,qcFlag
Anadarko,ioos:station:wmo:42398:1,2020-09-01T00:09:00Z,26.1322,-92.0403,100.6,22.7,11111222
Anadarko,ioos:station:wmo:42398:1,2020-09-01T00:29:00Z,26.1322,-92.0403,100.6,22.7,11111222
Anadarko,ioos:station:wmo:42398:1,2020-09-01T00:49:00Z,26.1322,-92.0403,100.6,22.8,11111222
Anadarko,ioos:station:wmo:42398:1,2020-09-01T01:09:00Z,26.1322,-92.0403,100.6,22.8,11111222
Anadarko,ioos:station:wmo:42398:1,2020-09-01T01:29:00Z,26.1322,-92.0403,100.6,22.7,11111222
Anadarko,ioos:station:wmo:42398:1,2020-09-01T01:49:00Z,26.1322,-92.0403,100.6,22.6,11111222
Anadarko,ioos:station:wmo:42398:1,2020-09-01T02:09:00Z,26.1322,-92.0403,100.6,22.6,11111222
Anadarko,ioos:station:wmo:42398:1,2020-09-01T02:29:00Z,26.1322,-92.0403,100.6,22.6,11111222
Anadarko,ioos:station:wmo:42398:1,2020-09-01T02:49:00Z,26.1322,-92.0403,100.6,22.6,11111222
Anadarko,ioos:station:wmo:42398:1,2020-09-01T03:09:00Z,26.1322,-92.0403,100.6,22.6,11111222
Anadarko,ioos:station:wmo:42398:1,2020-09-01T03:29:00Z,26.1322,-92.0403,100.6,22.7,11111222
Anadarko,ioos:station:wmo:42398:1,2020-09-01T03:49:00Z,26.1322,-92.0403,100.6,22.7,11111222
Anadarko,ioos:station:wmo:42398:1,2020-09-01T04:09:00Z,26.1322,-92.0403,100.6,22.7,11111222
Anadarko,ioos:station:wmo:42398:1,2020-09-01T04:29:00Z,26.1322,-92.0403,100.6,22.6,11111222
Anadarko,ioos:station:wmo:42398:1,2020-09-01T04:49:00Z,26.1322,-92.0403,100.6,22.6,11111222
Anadarko,ioos:station:wmo:42398:1,2020-09-01T05:08:00Z,26.1322,-92.0403,100.6,22.6,11111222
Anadarko,ioos:station:wmo:42398:1,2020-09-01T05:28:00Z,26.1322,-92.0403,100.6,22.7,11111222
Anadarko,ioos:station:wmo:42398:1,2020-09-01T05:47:00Z,26.1322,-92.0403,100.6,22.8,11111222
Anadarko,ioos:station:wmo:42398:1,2020-09-01T06:07:00Z,26.1322,-92.0403,100.6,22.8,11111222
Anadarko,ioos:station:wmo:42398:1,2020-09-01T06:27:00Z,26.1322,-92.0403,100.6,22.8,11111222
Anadarko,ioos:station:wmo:42398:1,2020-09-01T06:46:00Z,26.1322,-92.0403,100.6,22.7,11111222
Anadarko,ioos:station:wmo:42398:1,2020-09-01T07:06:00Z,26.1322,-92.0403,100.6,22.8,11111222
Anadarko,ioos:station:wmo:42398:1,2020-09-01T07:26:00Z,26.1322,-92.0403,100.6,22.8,11111222
Anadarko,ioos:station:wmo:42398:1,2020-09-01T07:46:00Z,26.1322,-92.0403,100.6,22.8,11111222
Anadarko,ioos:station:wmo:42398:1,2020-09-01T08:06:00Z,26.1322,-92.0403,100.6,22.7,11111222
Anadarko,ioos:station:wmo:42398:1,2020-09-01T08:26:00Z,26.1322,-92.0403,100.6,22.7,11111222
Anadarko,ioos:station:wmo:42398:1,2020-09-01T08:45:00Z,26.1322,-92.0403,100.6,22.7,11111222
Anadarko,ioos:station:wmo:42398:1,2020-09-01T09:05:00Z,26.1322,-92.0403,100.6,22.7,11111222
Anadarko,ioos:station:wmo:42398:1,2020-09-01T09:25:00Z,26.1322,-92.0403,100.6,22.7,11111222
Anadarko,ioos:station:wmo:42398:1,2020-09-01T09:45:00Z,26.1322,-92.0403,100.6,22.6,11111222
Anadarko,ioos:station:wmo:42398:1,2020-09-01T10:05:00Z,26.1322,-92.0403,100.6,22.7,11111222
Anadarko,ioos:station:wmo:42398:1,2020-09-01T10:25:00Z,26.1322,-92.0403,100.6,22.7,11111222
Anadarko,ioos:station:wmo:42398:1,2020-09-01T10:45:00Z,26.1322,-92.0403,100.6,22.7,11111222
Anadarko,ioos:station:wmo:42398:1,2020-09-01T11:05:00Z,26.1322,-92.0403,100.6,22.8,11111222
Anadarko,ioos:station:wmo:42398:1,2020-09-01T11:25:00Z,26.1322,-92.0403,100.6,22.9,11111222
Anadarko,ioos:station:wmo:42398:1,2020-09-01T11:45:00Z,26.1322,-92.0403,100.6,22.9,11111222
Anadarko,ioos:station:wmo:42398:1,2020-09-01T12:05:00Z,26.1322,-92.0403,100.6,22.8,11111222
Anadarko,ioos:station:wmo:42398:1,2020-09-01T12:25:00Z,26.1322,-92.0403,100.6,22.8,11111222
Anadarko,ioos:station:wmo:42398:1,2020-09-01T12:44:00Z,26.1322,-92.0403,100.6,22.8,11111222
Anadarko,ioos:station:wmo:42398:1,2020-09-01T13:04:00Z,26.1322,-92.0403,100.6,22.8,11111222
Anadarko,ioos:station:wmo:42398:1,2020-09-01T13:24:00Z,26.1322,-92.0403,100.6,22.8,11111222
Anadarko,ioos:station:wmo:42398:1,2020-09-01T13:43:00Z,26.1322,-92.0403,100.6,22.7,11111222
Anadarko,ioos:station:wmo:42398:1,2020-09-01T14:03:00Z,26.1322,-92.0403,100.6,22.8,11111222
Anadarko,ioos:station:wmo:42398:1,2020-09-01T14:23:00Z,26.1322,-92.0403,100.6,22.7,11111222
Anadarko,ioos:station:wmo:42398:1,2020-09-01T14:43:00Z,26.1322,-92.0403,100.6,22.6,11111222
Anadarko,ioos:station:wmo:42398:1,2020-09-01T15:02:00Z,26.1322,-92.0403,100.6,22.6,11111222
Anadarko,ioos:station:wmo:42398:1,2020-09-01T15:21:00Z,26.1322,-92.0403,100.6,22.6,11111222
Anadarko,ioos:station:wmo:42398:1,2020-09-01T15:41:00Z,26.1322,-92.0403,100.6,22.5,11111222
Anadarko,ioos:station:wmo:42398:1,2020-09-01T16:00:00Z,26.1322,-92.0403,100.6,22.4,11111222
Anadarko,ioos:station:wmo:42398:1,2020-09-01T16:20:00Z,26.1322,-92.0403,100.6,22.5,11111222
Anadarko,ioos:station:wmo:42398:1,2020-09-01T16:40:00Z,26.1322,-92.0403,100.6,22.5,11111222
Anadarko,ioos:station:wmo:42398:1,2020-09-01T17:00:00Z,26.1322,-92.0403,100.6,22.6,11111222
Anadarko,ioos:station:wmo:42398:1,2020-09-01T17:20:00Z,26.1322,-92.0403,100.6,22.6,11111222
Anadarko,ioos:station:wmo:42398:1,2020-09-01T17:39:00Z,26.1322,-92.0403,100.6,22.7,11111222
Anadarko,ioos:station:wmo:42398:1,2020-09-01T17:58:00Z,26.1322,-92.0403,100.6,22.7,11111222
Anadarko,ioos:station:wmo:42398:1,2020-09-01T18:18:00Z,26.1322,-92.0403,100.6,22.7,11111222
Anadarko,ioos:station:wmo:42398:1,2020-09-01T18:38:00Z,26.1322,-92.0403,100.6,22.7,11111222
Anadarko,ioos:station:wmo:42398:1,2020-09-01T18:58:00Z,26.1322,-92.0403,100.6,22.7,11111222
Anadarko,ioos:station:wmo:42398:1,2020-09-01T19:18:00Z,26.1322,-92.0403,100.6,22.7,11111222
Anadarko,ioos:station:wmo:42398:1,2020-09-01T19:38:00Z,26.1322,-92.0403,100.6,22.8,11111222
Anadarko,ioos:station:wmo:42398:1,2020-09-01T19:58:00Z,26.1322,-92.0403,100.6,22.9,11111222
Anadarko,ioos:station:wmo:42398:1,2020-09-01T20:18:00Z,26.1322,-92.0403,100.6,22.9,11111222
Anadarko,ioos:station:wmo:42398:1,2020-09-01T20:38:00Z,26.1322,-92.0403,100.6,22.8,11111222
Anadarko,ioos:station:wmo:42398:1,2020-09-01T20:58:00Z,26.1322,-92.0403,100.6,22.8,11111222
Anadarko,ioos:station:wmo:42398:1,2020-09-01T21:18:00Z,26.1322,-92.0403,100.6,22.8,11111222
Anadarko,ioos:station:wmo:42398:1,2020-09-01T21:38:00Z,26.1322,-92.0403,100.6,22.7,11111222
Anadarko,ioos:station:wmo:42398:1,2020-09-01T21:58:00Z,26.1322,-92.0403,100.6,22.7,11111222
Anadarko,ioos:station:wmo:42398:1,2020-09-01T22:18:00Z,26.1322,-92.0403,100.6,22.7,11111222
Anadarko,ioos:station:wmo:42398:1,2020-09-01T22:38:00Z,26.1322,-92.0403,100.6,22.7,11111222
Anadarko,ioos:station:wmo:42398:1,2020-09-01T22:57:00Z,26.1322,-92.0403,100.6,22.7,11111222
Anadarko,ioos:station:wmo:42398:1,2020-09-01T23:17:00Z,26.1322,-92.0403,100.6,22.7,11111222
Anadarko,ioos:station:wmo:42398:1,2020-09-01T23:37:00Z,26.1322,-92.0403,100.6,22.8,11111222
Anadarko,ioos:station:wmo:42398:1,2020-09-01T23:57:00Z,26.1322,-92.0403,100.6,22.7,11111222
Anadarko,ioos:station:wmo:42398:1,2020-09-02T00:17:00Z,26.1322,-92.0403,100.6,22.8,11111222
Anadarko,ioos:station:wmo:42398:1,2020-09-02T00:36:00Z,26.1322,-92.0403,100.6,22.7,11111222
Anadarko,ioos:station:wmo:42398:1,2020-09-02T00:56:00Z,26.1322,-92.0403,100.6,22.7,11111222
Anadarko,ioos:station:wmo:42398:1,2020-09-02T01:16:00Z,26.1322,-92.0403,100.6,22.6,11111222
Anadarko,ioos:station:wmo:42398:1,2020-09-02T01:36:00Z,26.1322,-92.0403,100.6,22.6,11111222
Anadarko,ioos:station:wmo:42398:1,2020-09-02T01:56:00Z,26.1322,-92.0403,100.6,22.6,11111222
Anadarko,ioos:station:wmo:42398:1,2020-09-02T02:15:00Z,26.1322,-92.0403,100.6,22.7,11111222
Anadarko,ioos:station:wmo:42398:1,2020-09-02T02:35:00Z,26.1322,-92.0403,100.6,22.8,11111222
Anadarko,ioos:station:wmo:42398:1,2020-09-02T02:54:00Z,26.1322,-92.0403,100.6,22.8,11111222
Anadarko,ioos:station:wmo:42398:1,2020-09-02T03:14:00Z,26.1322,-92.0403,100.6,22.8,11111222
Anadarko,ioos:station:wmo:42398:1,2020-09-02T03:34:00Z,26.1322,-92.0403,100.6,22.8,11111222
Anadarko,ioos:station:wmo:42398:1,2020-09-02T03:54:00Z,26.1322,-92.0403,100.6,22.8,11111222
Anadarko,ioos:station:wmo:42398:1,2020-09-02T04:14:00Z,26.1322,-92.0403,100.6,22.9,11111222
Anadarko,ioos:station:wmo:42398:1,2020-09-02T04:34:00Z,26.1322,-92.0403,100.6,22.9,11111222
Anadarko,ioos:station:wmo:42398:1,2020-09-02T04:54:00Z,26.1322,-92.0403,100.6,22.8,11111222
Anadarko,ioos:station:wmo:42398:1,2020-09-02T05:14:00Z,26.1322,-92.0403,100.6,22.8,11111222
Anadarko,ioos:station:wmo:42398:1,2020-09-02T05:34:00Z,26.1322,-92.0403,100.6,22.8,11111222
Anadarko,ioos:station:wmo:42398:1,2020-09-02T05:54:00Z,26.1322,-92.0403,100.6,22.8,11111222
Anadarko,ioos:station:wmo:42398:1,2020-09-02T06:14:00Z,26.1322,-92.0403,100.6,22.9,11111222
Anadarko,ioos:station:wmo:42398:1,2020-09-02T06:34:00Z,26.1322,-92.0403,100.6,22.9,11111222
Anadarko,ioos:station:wmo:42398:1,2020-09-02T06:54:00Z,26.1322,-92.0403,100.6,22.8,11111222
Anadarko,ioos:station:wmo:42398:1,2020-09-02T07:14:00Z,26.1322,-92.0403,100.6,22.8,11111222
Anadarko,ioos:station:wmo:42398:1,2020-09-02T07:34:00Z,26.1322,-92.0403,100.6,22.7,11111222
Anadarko,ioos:station:wmo:42398:1,2020-09-02T07:54:00Z,26.1322,-92.0403,100.6,22.8,11111222
Anadarko,ioos:station:wmo:42398:1,2020-09-02T08:14:00Z,26.1322,-92.0403,100.6,22.8,11111222
Anadarko,ioos:station:wmo:42398:1,2020-09-02T08:34:00Z,26.1322,-92.0403,100.6,22.7,11111222
Anadarko,ioos:station:wmo:42398:1,2020-09-02T08:54:00Z,26.1322,-92.0403,100.6,22.7,11111222
Anadarko,ioos:station:wmo:42398:1,2020-09-02T09:14:00Z,26.1322,-92.0403,100.6,22.7,11111222
Anadarko,ioos:station:wmo:42398:1,2020-09-02T09:34:00Z,26.1322,-92.0403,100.6,22.7,11111222
Anadarko,ioos:station:wmo:42398:1,2020-09-02T09:54:00Z,26.1322,-92.0403,100.6,22.8,11111222
Anadarko,ioos:station:wmo:42398:1,2020-09-02T10:14:00Z,26.1322,-92.0403,100.6,22.7,11111222
Anadarko,ioos:station:wmo:42398:1,2020-09-02T10:33:00Z,26.1322,-92.0403,100.6,22.7,11111222
Anadarko,ioos:station:wmo:42398:1,2020-09-02T10:53:00Z,26.1322,-92.0403,100.6,22.7,11111222
Anadarko,ioos:station:wmo:42398:1,2020-09-02T11:13:00Z,26.1322,-92.0403,100.6,22.8,11111222
Anadarko,ioos:station:wmo:42398:1,2020-09-02T11:33:00Z,26.1322,-92.0403,100.6,22.8,11111222
Anadarko,ioos:station:wmo:42398:1,2020-09-02T11:52:00Z,26.1322,-92.0403,100.6,22.7,11111222
Anadarko,ioos:station:wmo:42398:1,2020-09-02T12:12:00Z,26.1322,-92.0403,100.6,22.7,11111222
Anadarko,ioos:station:wmo:42398:1,2020-09-02T12:31:00Z,26.1322,-92.0403,100.6,22.7,11111222
Anadarko,ioos:station:wmo:42398:1,2020-09-02T12:51:00Z,26.1322,-92.0403,100.6,22.7,11111222
Anadarko,ioos:station:wmo:42398:1,2020-09-02T13:11:00Z,26.1322,-92.0403,100.6,22.7,11111222
Anadarko,ioos:station:wmo:42398:1,2020-09-02T13:31:00Z,26.1322,-92.0403,100.6,22.7,11111222
Anadarko,ioos:station:wmo:42398:1,2020-09-02T13:51:00Z,26.1322,-92.0403,100.6,22.6,11111222
Anadarko,ioos:station:wmo:42398:1,2020-09-02T14:10:00Z,26.1322,-92.0403,100.6,22.6,11111222
Anadarko,ioos:station:wmo:42398:1,2020-09-02T14:30:00Z,26.1322,-92.0403,100.6,22.7,11111222
Anadarko,ioos:station:wmo:42398:1,2020-09-02T14:50:00Z,26.1322,-92.0403,100.6,22.7,11111222
Anadarko,ioos:station:wmo:42398:1,2020-09-02T15:10:00Z,26.1322,-92.0403,100.6,22.7,11111222
Anadarko,ioos:station:wmo:42398:1,2020-09-02T15:30:00Z,26.1322,-92.0403,100.6,22.7,11111222
Anadarko,ioos:station:wmo:42398:1,2020-09-02T15:50:00Z,26.1322,-92.0403,100.6,22.6,11111222
Anadarko,ioos:station:wmo:42398:1,2020-09-02T16:09:00Z,26.1322,-92.0403,100.6,22.6,11111222
Anadarko,ioos:station:wmo:42398:1,2020-09-02T16:29:00Z,26.1322,-92.0403,100.6,22.6,11111222
Anadarko,ioos:station:wmo:42398:1,2020-09-02T16:49:00Z,26.1322,-92.0403,100.6,22.6,11111222
Anadarko,ioos:station:wmo:42398:1,2020-09-02T17:09:00Z,26.1322,-92.0403,100.6,22.6,11111222
Anadarko,ioos:station:wmo:42398:1,2020-09-02T17:28:00Z,26.1322,-92.0403,100.6,22.6,11111222
Anadarko,ioos:station:wmo:42398:1,2020-09-02T17:48:00Z,26.1322,-92.0403,100.6,22.6,11111222
Anadarko,ioos:station:wmo:42398:1,2020-09-02T18:08:00Z,26.1322,-92.0403,100.6,22.7,11111222
Anadarko,ioos:station:wmo:42398:1,2020-09-02T18:28:00Z,26.1322,-92.0403,100.6,22.6,11111222
Anadarko,ioos:station:wmo:42398:1,2020-09-02T18:48:00Z,26.1322,-92.0403,100.6,22.6,11111222
Anadarko,ioos:station:wmo:42398:1,2020-09-02T19:08:00Z,26.1322,-92.0403,100.6,22.5,11111222
Anadarko,ioos:station:wmo:42398:1,2020-09-02T19:28:00Z,26.1322,-92.0403,100.6,22.6,11111222
Anadarko,ioos:station:wmo:42398:1,2020-09-02T19:48:00Z,26.1322,-92.0403,100.6,22.5,11111222
Anadarko,ioos:station:wmo:42398:1,2020-09-02T20:08:00Z,26.1322,-92.0403,100.6,22.5,11111222
Anadarko,ioos:station:wmo:42398:1,2020-09-02T20:28:00Z,26.1322,-92.0403,100.6,22.5,11111222
Anadarko,ioos:station:wmo:42398:1,2020-09-02T20:48:00Z,26.1322,-92.0403,100.6,22.5,11111222
Anadarko,ioos:station:wmo:42398:1,2020-09-02T21:08:00Z,26.1322,-92.0403,100.6,22.5,11111222
Anadarko,ioos:station:wmo:42398:1,2020-09-02T21:28:00Z,26.1322,-92.0403,100.6,22.6,11111222
Anadarko,ioos:station:wmo:42398:1,2020-09-02T21:47:00Z,26.1322,-92.0403,100.6,22.6,11111222
Anadarko,ioos:station:wmo:42398:1,2020-09-02T22:06:00Z,26.1322,-92.0403,100.6,22.5,11111222
Anadarko,ioos:station:wmo:42398:1,2020-09-02T22:26:00Z,26.1322,-92.0403,100.6,22.5,11111222
Anadarko,ioos:station:wmo:42398:1,2020-09-02T22:46:00Z,26.1322,-92.0403,100.6,22.5,11111222
Anadarko,ioos:station:wmo:42398:1,2020-09-02T23:06:00Z,26.1322,-92.0403,100.6,22.5,11111222
Anadarko,ioos:station:wmo:42398:1,2020-09-02T23:26:00Z,26.1322,-92.0403,100.6,22.5,11111222
Anadarko,ioos:station:wmo:42398:1,2020-09-02T23:46:00Z,26.1322,-92.0403,100.6,22.5,11111222
Anadarko,ioos:station:wmo:42398:1,2020-09-03T00:06:00Z,26.1322,-92.0403,100.6,22.4,11111222
Anadarko,ioos:station:wmo:42398:1,2020-09-03T00:26:00Z,26.1322,-92.0403,100.6,22.5,11111222
Anadarko,ioos:station:wmo:42398:1,2020-09-03T00:46:00Z,26.1322,-92.0403,100.6,22.5,11111222
Anadarko,ioos:station:wmo:42398:1,2020-09-03T01:06:00Z,26.1322,-92.0403,100.6,22.6,11111222
Anadarko,ioos:station:wmo:42398:1,2020-09-03T01:26:00Z,26.1322,-92.0403,100.6,22.6,11111222
Anadarko,ioos:station:wmo:42398:1,2020-09-03T01:46:00Z,26.1322,-92.0403,100.6,22.6,11111222
Anadarko,ioos:station:wmo:42398:1,2020-09-03T02:06:00Z,26.1322,-92.0403,100.6,22.6,11111222
Anadarko,ioos:station:wmo:42398:1,2020-09-03T02:26:00Z,26.1322,-92.0403,100.6,22.7,11111222
Anadarko,ioos:station:wmo:42398:1,2020-09-03T02:46:00Z,26.1322,-92.0403,100.6,23.0,11111222
Anadarko,ioos:station:wmo:42398:1,2020-09-03T03:05:00Z,26.1322,-92.0403,100.6,23.1,11111222
Anadarko,ioos:station:wmo:42398:1,2020-09-03T03:25:00Z,26.1322,-92.0403,100.6,23.0,11111222
Anadarko,ioos:station:wmo:42398:1,2020-09-03T03:44:00Z,26.1322,-92.0403,100.6,22.9,11111222
Anadarko,ioos:station:wmo:42398:1,2020-09-03T04:03:00Z,26.1322,-92.0403,100.6,22.8,11111222
Anadarko,ioos:station:wmo:42398:1,2020-09-03T04:23:00Z,26.1322,-92.0403,100.6,22.6,11111222
Anadarko,ioos:station:wmo:42398:1,2020-09-03T04:43:00Z,26.1322,-92.0403,100.6,22.7,11111222
Anadarko,ioos:station:wmo:42398:1,2020-09-03T05:03:00Z,26.1322,-92.0403,100.6,22.7,11111222
Anadarko,ioos:station:wmo:42398:1,2020-09-03T05:23:00Z,26.1322,-92.0403,100.6,22.9,11111222
Anadarko,ioos:station:wmo:42398:1,2020-09-03T05:43:00Z,26.1322,-92.0403,100.6,22.9,11111222
Anadarko,ioos:station:wmo:42398:1,2020-09-03T06:03:00Z,26.1322,-92.0403,100.6,22.8,11111222
Anadarko,ioos:station:wmo:42398:1,2020-09-03T06:23:00Z,26.1322,-92.0403,100.6,22.8,11111222
Anadarko,ioos:station:wmo:42398:1,2020-09-03T06:43:00Z,26.1322,-92.0403,100.6,22.8,11111222
Anadarko,ioos:station:wmo:42398:1,2020-09-03T07:03:00Z,26.1322,-92.0403,100.6,22.9,11111222
Anadarko,ioos:station:wmo:42398:1,2020-09-03T07:23:00Z,26.1322,-92.0403,100.6,22.9,11111222
Anadarko,ioos:station:wmo:42398:1,2020-09-03T07:43:00Z,26.1322,-92.0403,100.6,22.9,11111222
Anadarko,ioos:station:wmo:42398:1,2020-09-03T08:03:00Z,26.1322,-92.0403,100.6,23.0,11111222
Anadarko,ioos:station:wmo:42398:1,2020-09-03T08:23:00Z,26.1322,-92.0403,100.6,23.0,11111222
Anadarko,ioos:station:wmo:42398:1,2020-09-03T08:43:00Z,26.1322,-92.0403,100.6,22.9,11111222
Anadarko,ioos:station:wmo:42398:1,2020-09-03T09:03:00Z,26.1322,-92.0403,100.6,23.0,11111222
Anadarko,ioos:station:wmo:42398:1,2020-09-03T09:23:00Z,26.1322,-92.0403,100.6,23.0,11111222
Anadarko,ioos:station:wmo:42398:1,2020-09-03T09:43:00Z,26.1322,-92.0403,100.6,23.0,11111222
Anadarko,ioos:station:wmo:42398:1,2020-09-03T10:03:00Z,26.1322,-92.0403,100.6,23.0,11111222
Anadarko,ioos:station:wmo:42398:1,2020-09-03T10:23:00Z,26.1322,-92.0403,100.6,22.9,11111222
Anadarko,ioos:station:wmo:42398:1,2020-09-03T10:43:00Z,26.1322,-92.0403,100.6,22.9,11111222
Anadarko,ioos:station:wmo:42398:1,2020-09-03T11:02:00Z,26.1322,-92.0403,100.6,22.9,11111222
Anadarko,ioos:station:wmo:42398:1,2020-09-03T11:21:00Z,26.1322,-92.0403,100.6,22.8,11111222
Anadarko,ioos:station:wmo:42398:1,2020-09-03T11:41:00Z,26.1322,-92.0403,100.6,22.8,11111222
Anadarko,ioos:station:wmo:42398:1,2020-09-03T12:01:00Z,26.1322,-92.0403,100.6,22.8,11111222
Anadarko,ioos:station:wmo:42398:1,2020-09-03T12:21:00Z,26.1322,-92.0403,100.6,22.8,11111222
Anadarko,ioos:station:wmo:42398:1,2020-09-03T12:41:00Z,26.1322,-92.0403,100.6,22.8,11111222
Anadarko,ioos:station:wmo:42398:1,2020-09-03T13:01:00Z,26.1322,-92.0403,100.6,22.9,11111222
Anadarko,ioos:station:wmo:42398:1,2020-09-03T13:21:00Z,26.1322,-92.0403,100.6,22.9,11111222
Anadarko,ioos:station:wmo:42398:1,2020-09-03T13:41:00Z,26.1322,-92.0403,100.6,22.9,11111222
Anadarko,ioos:station:wmo:42398:1,2020-09-03T14:01:00Z,26.1322,-92.0403,100.6,22.9,11111222
Anadarko,ioos:station:wmo:42398:1,2020-09-03T14:21:00Z,26.1322,-92.0403,100.6,22.9,11111222
Anadarko,ioos:station:wmo:42398:1,2020-09-03T14:41:00Z,26.1322,-92.0403,100.6,22.9,11111222
Anadarko,ioos:station:wmo:42398:1,2020-09-03T15:01:00Z,26.1322,-92.0403,100.6,22.8,11111222
Anadarko,ioos:station:wmo:42398:1,2020-09-03T15:21:00Z,26.1322,-92.0403,100.6,22.8,11111222
Anadarko,ioos:station:wmo:42398:1,2020-09-03T15:41:00Z,26.1322,-92.0403,100.6,22.8,11111222
Anadarko,ioos:station:wmo:42398:1,2020-09-03T16:01:00Z,26.1322,-92.0403,100.6,22.8,11111222
Anadarko,ioos:station:wmo:42398:1,2020-09-03T16:21:00Z,26.1322,-92.0403,100.6,22.7,11111222
Anadarko,ioos:station:wmo:42398:1,2020-09-03T16:41:00Z,26.1322,-92.0403,100.6,22.7,11111222
Anadarko,ioos:station:wmo:42398:1,2020-09-03T17:01:00Z,26.1322,-92.0403,100.6,22.7,11111222
Anadarko,ioos:station:wmo:42398:1,2020-09-03T17:21:00Z,26.1322,-92.0403,100.6,22.7,11111222
Anadarko,ioos:station:wmo:42398:1,2020-09-03T17:41:00Z,26.1322,-92.0403,100.6,22.6,11111222
Anadarko,ioos:station:wmo:42398:1,2020-09-03T18:01:00Z,26.1322,-92.0403,100.6,22.6,11111222
Anadarko,ioos:station:wmo:42398:1,2020-09-03T18:21:00Z,26.1322,-92.0403,100.6,22.7,11111222
Anadarko,ioos:station:wmo:42398:1,2020-09-03T18:41:00Z,26.1322,-92.0403,100.6,22.6,11111222
Anadarko,ioos:station:wmo:42398:1,2020-09-03T19:01:00Z,26.1322,-92.0403,100.6,22.6,11111222
Anadarko,ioos:station:wmo:42398:1,2020-09-03T19:21:00Z,26.1322,-92.0403,100.6,22.6,11111222
Anadarko,ioos:station:wmo:42398:1,2020-09-03T19:41:00Z,26.1322,-92.0403,100.6,22.6,11111222
Anadarko,ioos:station:wmo:42398:1,2020-09-03T20:01:00Z,26.1322,-92.0403,100.6,22.4,11111222
Anadarko,ioos:station:wmo:42398:1,2020-09-03T20:21:00Z,26.1322,-92.0403,100.6,22.5,11111222
Anadarko,ioos:station:wmo:42398:1,2020-09-03T20:40:00Z,26.1322,-92.0403,100.6,22.6,11111222
Anadarko,ioos:station:wmo:42398:1,2020-09-03T21:00:00Z,26.1322,-92.0403,100.6,22.6,11111222
Anadarko,ioos:station:wmo:42398:1,2020-09-03T21:20:00Z,26.1322,-92.0403,100.6,22.6,11111222
Anadarko,ioos:station:wmo:42398:1,2020-09-03T21:40:00Z,26.1322,-92.0403,100.6,22.6,11111222
Anadarko,ioos:station:wmo:42398:1,2020-09-03T22:00:00Z,26.1322,-92.0403,100.6,22.5,11111222
Anadarko,ioos:station:wmo:42398:1,2020-09-03T22:20:00Z,26.1322,-92.0403,100.6,22.6,11111222
Anadarko,ioos:station:wmo:42398:1,2020-09-03T22:40:00Z,26.1322,-92.0403,100.6,22.6,11111222
Anadarko,ioos:station:wmo:42398:1,2020-09-03T23:00:00Z,26.1322,-92.0403,100.6,22.8,11111222
Anadarko,ioos:station:wmo:42398:1,2020-09-03T23:20:00Z,26.1322,-92.0403,100.6,22.8,11111222
Anadarko,ioos:station:wmo:42398:1,2020-09-03T23:40:00Z,26.1322,-92.0403,100.6,22.8,11111222
Anadarko,ioos:station:wmo:42398:1,2020-09-03T23:59:00Z,26.1322,-92.0403,100.6,22.9,11111222
Anadarko,ioos:station:wmo:42398:1,2020-09-04T00:19:00Z,26.1322,-92.0403,100.6,22.9,11111222
Anadarko,ioos:station:wmo:42398:1,2020-09-04T00:39:00Z,26.1322,-92.0403,100.6,23.0,11111222
Anadarko,ioos:station:wmo:42398:1,2020-09-04T00:59:00Z,26.1322,-92.0403,100.6,22.9,11111222
Anadarko,ioos:station:wmo:42398:1,2020-09-04T01:19:00Z,26.1322,-92.0403,100.6,22.9,11111222
Anadarko,ioos:station:wmo:42398:1,2020-09-04T01:39:00Z,26.1322,-92.0403,100.6,22.9,11111222
Anadarko,ioos:station:wmo:42398:1,2020-09-04T01:59:00Z,26.1322,-92.0403,100.6,22.9,11111222
Anadarko,ioos:station:wmo:42398:1,2020-09-04T02:19:00Z,26.1322,-92.0403,100.6,22.8,11111222
Anadarko,ioos:station:wmo:42398:1,2020-09-04T02:39:00Z,26.1322,-92.0403,100.6,22.8,11111222
Anadarko,ioos:station:wmo:42398:1,2020-09-04T02:59:00Z,26.1322,-92.0403,100.6,22.8,11111222
Anadarko,ioos:station:wmo:42398:1,2020-09-04T03:19:00Z,26.1322,-92.0403,100.6,22.8,11111222
Anadarko,ioos:station:wmo:42398:1,2020-09-04T03:39:00Z,26.1322,-92.0403,100.6,22.8,11111222
Anadarko,ioos:station:wmo:42398:1,2020-09-04T03:58:00Z,26.1322,-92.0403,100.6,22.9,11111222
Anadarko,ioos:station:wmo:42398:1,2020-09-04T04:18:00Z,26.1322,-92.0403,100.6,22.9,11111222
Anadarko,ioos:station:wmo:42398:1,2020-09-04T04:38:00Z,26.1322,-92.0403,100.6,22.9,11111222
Anadarko,ioos:station:wmo:42398:1,2020-09-04T04:57:00Z,26.1322,-92.0403,100.6,22.7,11111222
Anadarko,ioos:station:wmo:42398:1,2020-09-04T05:16:00Z,26.1322,-92.0403,100.6,22.8,11111222
Anadarko,ioos:station:wmo:42398:1,2020-09-04T05:36:00Z,26.1322,-92.0403,100.6,22.7,11111222
Anadarko,ioos:station:wmo:42398:1,2020-09-04T05:56:00Z,26.1322,-92.0403,100.6,22.7,11111222
Anadarko,ioos:station:wmo:42398:1,2020-09-04T06:16:00Z,26.1322,-92.0403,100.6,22.7,11111222
Anadarko,ioos:station:wmo:42398:1,2020-09-04T06:36:00Z,26.1322,-92.0403,100.6,22.6,11111222
Anadarko,ioos:station:wmo:42398:1,2020-09-04T06:56:00Z,26.1322,-92.0403,100.6,22.7,11111222
Anadarko,ioos:station:wmo:42398:1,2020-09-04T07:16:00Z,26.1322,-92.0403,100.6,22.7,11111222
Anadarko,ioos:station:wmo:42398:1,2020-09-04T07:36:00Z,26.1322,-92.0403,100.6,22.6,11111222
Anadarko,ioos:station:wmo:42398:1,2020-09-04T07:56:00Z,26.1322,-92.0403,100.6,22.6,11111222
Anadarko,ioos:station:wmo:42398:1,2020-09-04T08:16:00Z,26.1322,-92.0403,100.6,22.7,11111222
Anadarko,ioos:station:wmo:42398:1,2020-09-04T08:36:00Z,26.1322,-92.0403,100.6,22.7,11111222
Anadarko,ioos:station:wmo:42398:1,2020-09-04T08:56:00Z,26.1322,-92.0403,100.6,22.7,11111222
Anadarko,ioos:station:wmo:42398:1,2020-09-04T09:16:00Z,26.1322,-92.0403,100.6,22.8,11111222
Anadarko,ioos:station:wmo:42398:1,2020-09-04T09:36:00Z,26.1322,-92.0403,100.6,22.7,11111222
Anadarko,ioos:station:wmo:42398:1,2020-09-04T09:56:00Z,26.1322,-92.0403,100.6,22.6,11111222
Anadarko,ioos:station:wmo:42398:1,2020-09-04T10:16:00Z,26.1322,-92.0403,100.6,22.7,11111222
Anadarko,ioos:station:wmo:42398:1,2020-09-04T10:36:00Z,26.1322,-92.0403,100.6,22.7,11111222
Anadarko,ioos:station:wmo:42398:1,2020-09-04T10:56:00Z,26.1322,-92.0403,100.6,22.8,11111222
Anadarko,ioos:station:wmo:42398:1,2020-09-04T11:16:00Z,26.1322,-92.0403,100.6,22.8,11111222
Anadarko,ioos:station:wmo:42398:1,2020-09-04T11:36:00Z,26.1322,-92.0403,100.6,22.9,11111222
Anadarko,ioos:station:wmo:42398:1,2020-09-04T11:56:00Z,26.1322,-92.0403,100.6,22.8,11111222
Anadarko,ioos:station:wmo:42398:1,2020-09-04T12:16:00Z,26.1322,-92.0403,100.6,22.7,11111222
Anadarko,ioos:station:wmo:42398:1,2020-09-04T12:36:00Z,26.1322,-92.0403,100.6,22.6,11111222
Anadarko,ioos:station:wmo:42398:1,2020-09-04T12:56:00Z,26.1322,-92.0403,100.6,22.4,11111222